Tracking 20083 objects as of 9-Dec-2019
HD Live streaming from Space Station
objects crossing your sky now

COSMOS 2251 DEB

Track COSMOS 2251 DEB now!
10-day predictions


NORAD ID: 35440
Int'l Code: 1993-036AKJ
Perigee: 649.8 km
Apogee: 764.9 km
Inclination: 74.0 °
Period: 98.8 minutes
Semi major axis: 7078 km
RCS: 0.0104 m2 (small)
Launch date: June 16, 1993
Source: Commonwealth of Independent States (former USSR) (CIS)
Launch site: PLESETSK MISSILE AND SPACE COMPLEX (PKMTR)

Note: This is SATELLITE DEBRIS
aabbcc
Your satellite tracking list
Your tracking list is empty




NASA's NSSDC Master Catalog

Two Line Element Set (TLE):
1 35440U 93036AKJ 19342.58658223 +.00000200 +00000-0 +48294-4 0  9998
2 35440 074.0222 089.1580 0081255 057.2613 303.6350 14.57821436366940
Source of the keplerian elements: AFSPC